Location: Warszawa
(52.2322°N, 21.0083°E)
Time: 19:42:35
(UTC+02:00)

ISS - Pass Details

Date: 31 March 2019
Orbit: 408 x 410 km, 51.6° (Epoch: 26 April)

Event Time Altitude Azimuth Distance (km) Brightness Sun altitude
Rises 21:00:17 0° 280° (W) 2,340 1.3 -17.0°
Reaches altitude 10° 21:02:23 10° 276° (W) 1,476 0.0 -17.2°
Maximum altitude 21:05:38 58° 197° (SSW) 482 -3.6 -17.7°
Enters shadow 21:06:03 53° 162° (SSE) 511 -3.7 -17.7°
